Greenville Downtown, SC

5:02 PM EDT on August 22, 2017 (GMT -0400)
Greenville Downtown

Weather History for KGMU - November, 2014

Change the Weather History Date:

Sunday, November 23, 2014

  Actual Average Record
Temperature  
Mean Temperature 48 °F -  
Max Temperature 55 °F 59 °F 71 °F (2012)
Min Temperature 41 °F 40 °F 21 °F (1996)
Degree Days  
Heating Degree Days 17    
Moisture  
Dew Point 43 °F    
Average Humidity 86    
Maximum Humidity 96    
Minimum Humidity 33    
Precipitation  
Precipitation 2.07 in - - ()
Sea Level Pressure  
Sea Level Pressure 29.96 in    
Wind  
Wind Speed 10 mph (NE)    
Max Wind Speed 16 mph    
Max Gust Speed 25 mph    
Visibility 5 miles    
Events Rain , Thunderstorm    
Averages and records for this station are not official NWS values.
T = Trace of Precipitation, MM = Missing Value Source: NWS Daily Summary

Daily Weather History Graph

Daily Weather History Graph

Search for Another Location

Airport or City:

Trip Planner

Search our weather history database for the weather conditions in past years. The results will help you decide how hot, cold, wet, or windy it might be!

Date:

Astronomy

Nov. 23, 2014 Rise Set
Actual Time 7:11 AM EST 5:20 PM EST
Civil Twilight 6:43 AM EST 5:47 PM EST
Nautical Twilight 6:13 AM EST 6:18 PM EST
Astronomical Twilight 5:42 AM EST 6:48 PM EST
Moon 8:06 AM EST (11/23) 6:41 PM EST (11/23)
Length of Visible Light 11h 03m
Length of Day
10h 08m
New Moon, 2% of the Moon is Illuminated
Nov 23
New Moon
Nov 29
First Quarter
Dec 6
Full
Dec 14
Last Quarter
Dec 21
New

Hourly Weather History & Observations

Time (EST) Temp. Windchill Dew Point Humidity Pressure Visibility Wind Dir Wind Speed Gust Speed Precip Events Conditions
12:53 AM 48.9 °F - 21.9 °F 35% 30.28 in 10.0 mi NNE 5.8 mph - N/A   Overcast
1:53 AM 48.9 °F - 23.0 °F 36% 30.27 in 10.0 mi NNE 4.6 mph - N/A   Overcast
2:25 AM 50.0 °F - 21.9 °F 33% 30.26 in 10.0 mi NNE 5.8 mph - N/A   Overcast
2:38 AM 48.9 °F - 26.1 °F 41% 30.25 in 10.0 mi NE 8.1 mph - 0.00 in Rain Light Rain
2:53 AM 48.0 °F - 28.9 °F 48% 30.25 in 10.0 mi NE 9.2 mph - 0.00 in Rain Light Rain
3:53 AM 46.0 °F 42.5 °F 32.0 °F 58% 30.24 in 8.0 mi NE 6.9 mph - 0.01 in Rain Light Rain
4:53 AM 43.0 °F 38.2 °F 35.1 °F 74% 30.23 in 10.0 mi NNE 8.1 mph - 0.04 in Rain Light Rain
5:24 AM 43.0 °F 36.0 °F 35.1 °F 74% 30.21 in 10.0 mi NNE 13.8 mph - 0.01 in Rain Light Rain
5:53 AM 42.1 °F 35.2 °F 35.1 °F 76% 30.21 in 10.0 mi NNE 12.7 mph - 0.02 in Rain Light Rain
6:53 AM 41.0 °F 33.9 °F 37.0 °F 86% 30.18 in 9.0 mi NNE 12.7 mph - 0.06 in Rain Light Rain
7:53 AM 42.1 °F 35.7 °F 37.0 °F 82% 30.18 in 10.0 mi NE 11.5 mph - 0.00 in Rain Light Rain
8:53 AM 42.1 °F 34.5 °F 37.0 °F 82% 30.16 in 10.0 mi NE 15.0 mph 20.7 mph 0.00 in   Overcast
9:53 AM 42.1 °F 34.9 °F 37.9 °F 85% 30.17 in 4.0 mi NE 13.8 mph - 0.04 in Rain Rain
10:53 AM 43.0 °F 36.8 °F 39.9 °F 89% 30.13 in 4.0 mi NNE 11.5 mph 19.6 mph 0.19 in Rain Rain
11:12 AM 43.0 °F 35.7 °F 41.0 °F 93% 30.11 in 2.5 mi NNE 15.0 mph 18.4 mph 0.06 in Rain Rain
11:20 AM 44.1 °F 38.1 °F 41.0 °F 89% 30.11 in 4.0 mi NNE 11.5 mph - 0.07 in Rain Rain
11:53 AM 45.0 °F 39.3 °F 42.1 °F 90% 30.08 in 2.5 mi NE 11.5 mph - 0.14 in Rain Heavy Rain
12:09 PM 45.0 °F 38.9 °F 43.0 °F 93% 30.05 in 1.8 mi NE 12.7 mph - 0.06 in Rain Heavy Rain
12:21 PM 45.0 °F 37.9 °F 42.1 °F 90% 30.01 in 1.8 mi NE 16.1 mph - 0.11 in Rain Heavy Rain
12:23 PM 45.0 °F 38.2 °F 42.1 °F 90% 30.02 in 2.0 mi NNE 15.0 mph - 0.12 in Rain Heavy Rain
12:29 PM 45.0 °F 38.2 °F 43.0 °F 93% 30.01 in 2.0 mi NNE 15.0 mph - 0.15 in Rain Heavy Rain
12:40 PM 45.0 °F 38.9 °F 43.0 °F 93% 30.01 in 1.8 mi NE 12.7 mph 23.0 mph 0.20 in Rain Heavy Rain
12:45 PM 45.0 °F 38.9 °F 43.0 °F 93% 30.01 in 3.0 mi NNE 12.7 mph 23.0 mph 0.21 in Rain Rain
12:53 PM 46.0 °F 39.3 °F 43.0 °F 89% 30.00 in 2.0 mi NNE 16.1 mph - 0.24 in Rain Heavy Rain
1:16 PM 46.0 °F 39.9 °F 44.1 °F 93% 29.98 in 1.2 mi NE 13.8 mph 21.9 mph 0.10 in Rain Heavy Rain
1:35 PM 46.0 °F 40.6 °F 44.1 °F 93% 29.96 in 2.0 mi NE 11.5 mph - 0.15 in Rain Rain
1:37 PM 46.0 °F 40.2 °F 44.1 °F 93% 29.96 in 1.8 mi NNE 12.7 mph - 0.16 in Rain Rain
1:40 PM 46.0 °F 40.6 °F 44.1 °F 93% 29.96 in 2.0 mi NE 11.5 mph - 0.17 in Rain Heavy Rain
1:45 PM 46.0 °F 40.6 °F 44.1 °F 93% 29.96 in 2.0 mi NE 11.5 mph - 0.18 in Rain Rain
1:53 PM 46.0 °F 39.9 °F 44.1 °F 93% 29.96 in 1.8 mi NE 13.8 mph 20.7 mph 0.20 in Rain Rain
1:59 PM 46.9 °F - 44.1 °F 90% 29.95 in 2.0 mi NE 12.7 mph - 0.00 in Rain Light Rain
2:37 PM 46.9 °F - 45.0 °F 93% 29.91 in 1.8 mi NE 15.0 mph 21.9 mph 0.04 in Rain Light Rain
2:53 PM 46.9 °F - 45.0 °F 93% 29.91 in 2.0 mi NE 11.5 mph - 0.09 in Rain Rain
3:53 PM 46.9 °F - 45.0 °F 93% 29.86 in 2.0 mi NE 12.7 mph 21.9 mph 0.21 in Rain Rain
4:09 PM 46.9 °F - 45.0 °F 93% 29.85 in 4.0 mi NE 13.8 mph - 0.03 in Rain Rain
4:35 PM 46.9 °F - 45.0 °F 93% 29.83 in 1.8 mi NE 15.0 mph - 0.10 in Rain Heavy Rain
4:53 PM 48.0 °F - 45.0 °F 89% 29.83 in 2.0 mi NE 15.0 mph - 0.18 in Rain Rain
4:57 PM 48.0 °F - 45.0 °F 89% 29.83 in 3.0 mi NE 12.7 mph - 0.00 in Rain Rain
4:59 PM 48.0 °F - 45.0 °F 89% 29.83 in 2.0 mi NE 10.4 mph - 0.00 in Rain , Thunderstorm Light Rain
5:19 PM 48.0 °F - 46.0 °F 93% 29.84 in 2.0 mi Variable 3.5 mph 19.6 mph 0.05 in Rain Light Rain
5:53 PM 48.0 °F - 46.0 °F 93% 29.80 in 2.0 mi NE 15.0 mph - 0.06 in Rain Light Rain
6:00 PM 48.0 °F - 46.0 °F 93% 29.80 in 5.0 mi SE 8.1 mph - 0.00 in Rain Light Rain
6:11 PM 48.9 °F - 46.0 °F 90% 29.77 in 4.0 mi NE 12.7 mph 25.3 mph 0.03 in Rain Rain
6:53 PM 48.9 °F - 46.9 °F 93% 29.76 in 3.0 mi ENE 12.7 mph - 0.32 in Rain Heavy Rain
7:02 PM 48.9 °F - 46.9 °F 93% 29.75 in 2.5 mi NE 10.4 mph - 0.08 in Rain Heavy Rain
7:21 PM 50.0 °F - 48.0 °F 93% 29.84 in 2.0 mi WSW 10.4 mph 19.6 mph 0.24 in Rain Heavy Rain
7:30 PM 50.0 °F - 48.9 °F 96% 29.83 in 6.0 mi Variable 3.5 mph - 0.26 in Rain Rain
7:39 PM 50.0 °F - 48.0 °F 93% 29.80 in 10.0 mi East 4.6 mph - 0.27 in Rain Light Rain
7:53 PM 51.1 °F - 48.9 °F 92% 29.74 in 10.0 mi NNE 6.9 mph - 0.27 in Rain Light Rain
8:53 PM 50.0 °F - 48.0 °F 93% 29.76 in 10.0 mi North 3.5 mph - 0.00 in   Clear
9:36 PM 50.0 °F - 48.0 °F 93% 29.77 in 10.0 mi North 5.8 mph - N/A   Mostly Cloudy
9:53 PM 51.1 °F - 48.9 °F 92% 29.76 in 10.0 mi Calm Calm - N/A   Overcast
10:23 PM 52.0 °F - 50.0 °F 93% 29.77 in 10.0 mi WNW 5.8 mph - N/A   Overcast
10:40 PM 52.0 °F - 50.0 °F 93% 29.76 in 10.0 mi South 3.5 mph - N/A   Mostly Cloudy
10:53 PM 52.0 °F - 50.0 °F 93% 29.76 in 10.0 mi Calm Calm - N/A   Scattered Clouds
11:11 PM 52.0 °F - 50.0 °F 93% 29.76 in 6.0 mi South 3.5 mph - N/A   Scattered Clouds
11:15 PM 52.0 °F - 50.0 °F 93% 29.76 in 7.0 mi South 4.6 mph - N/A   Mostly Cloudy
11:46 PM 55.0 °F - 54.0 °F 96% 29.75 in 7.0 mi SSW 13.8 mph - N/A   Overcast
11:53 PM 55.0 °F - 54.0 °F 96% 29.75 in 5.0 mi SSW 12.7 mph - N/A   Overcast